[[{"header":{"parameterUnit":"m.s-1","parameterCategory":1,"la1":30.2991,"la2":30.254,"lo1":-89.0895,"lo2":-89.0444,"dy":0.0017,"dx":0.0017,"nx":28,"ny":28,"refTime":"2024-09-30T21:00:00:Z","depth":0,"parameterNumber":2,"parameterNumberName":"U-component_of_WINDS"},"data":[0,0,0,0,0,0,0,0,0,0,0,0,0,0,0,0,0,0,0,0,0,0,0,0,0,0,0,0,0,0,0,0,0,0,0,0,0,0,0,0,0,0,0,0,0,0,0,0,0,0,0,0,0,0,0,0,0,0,0.6277,0.6278,0,0.6388,0.6389,0.639,0.64,0.6399,0.6398,0.6396,0.6517,0.6522,0.6526,0,0,0,0,0,0,0,0,0,0,0,0,0,0.608,0.6083,0.6277,0.6279,0.628,0.6387,0.6389,0.6391,0.64,0.6399,0.6397,0.6396,0.6516,0.6521,0.6526,0,0,0,0,0,0,0,0,0,0,0,0,0,0.6176,0.6084,0.6277,0.6298,0.63,0.6387,0.6389,0.6391,0.6401,0.6399,0.6397,0.6395,0.6514,0.6521,0.6527,0.6603,0,0,0.6547,0.655,0,0,0,0,0,0,0,0,0.617,0.6183,0.6293,0.6296,0.63,0.6378,0.6364,0.6462,0.6401,0.6363,0.6396,0.6394,0.6473,0.6483,0.6508,0.6609,0.6614,0.6547,0.6551,0.6554,0.6556,0,0,0,0,0,0,0,0.6163,0.6178,0.6321,0.6295,0.6299,0.6303,0.6315,0.6382,0.6427,0.6366,0.6367,0.6379,0.6475,0.6501,0.6511,0.6616,0.6547,0.6553,0.6557,0.656,0.6782,0.6784,0,0,0,0,0,0,0.6152,0.6173,0.6318,0.6324,0.6229,0.6308,0.6321,0.6355,0.6426,0.6435,0.6381,0.6379,0.6491,0.6503,0.6515,0.6607,0.6554,0.656,0.6564,0.678,0.6782,0.6784,0,0,0,0,0,0,0.6148,0.6165,0.6313,0.6249,0.6268,0.6313,0.6351,0.6358,0.6385,0.6437,0.6446,0.64,0.649,0.6506,0.658,0.6611,0.6563,0.6569,0.6778,0.6781,0.6783,0.6792,0,0,0,0,0,0,0.6142,0.6163,0.6192,0.6249,0.6271,0.6375,0.6353,0.6361,0.6395,0.6394,0.6457,0.6466,0.649,0.657,0.6586,0.6619,0.6574,0.6775,0.6779,0.6782,0.6789,0.6795,0.6799,0,0,0,0,0,0.6135,0.6192,0.6193,0.6211,0.6307,0.6377,0.6389,0.6413,0.6398,0.6427,0.646,0.6464,0.6605,0.6578,0.6596,0.6631,0.6773,0.6778,0.6782,0.6786,0.6793,0.6799,0,0,0,0,0,0,0.6141,0.62,0.6202,0.6279,0.6322,0.6378,0.6416,0.6421,0.6472,0.6469,0.6499,0.6513,0.6586,0.6616,0.6585,0.6707,0.6688,0.6696,0.6684,0.6692,0.6697,0.6688,0.658,0,0,0,0,0,0.615,0.6199,0.625,0.6313,0.6334,0.6371,0.6402,0.6416,0.6464,0.6483,0.6522,0.6569,0.6624,0.666,0.6713,0.6793,0.6806,0.6826,0.6831,0.6836,0.6843,0.6885,0.6894,0.6799,0.6799,0.6799,0,0,0.6172,0.621,0.624,0.6315,0.635,0.6401,0.6387,0.6443,0.6481,0.6493,0.6563,0.6593,0.6648,0.6725,0.6761,0.6752,0.6871,0.6841,0.6844,0.6849,0.689,0.6899,0.6907,0.6802,0.6802,0.6801,0,0,0.6237,0.6271,0.6326,0.636,0.6412,0.6436,0.6449,0.6504,0.6523,0.6594,0.6602,0.665,0.6744,0.6782,0.6813,0.6888,0.6894,0.6905,0.6933,0.6974,0.6982,0.6988,0.7014,0.7023,0.6912,0.6912,0.6912,0,0.6258,0.6333,0.6355,0.6408,0.6441,0.6449,0.6505,0.6539,0.6607,0.6629,0.6618,0.6734,0.6772,0.6856,0.6874,0.69,0.6916,0.6899,0.6978,0.6985,0.6992,0.7017,0.7026,0.6913,0.6913,0.6913,0.6913,0,0.6355,0.6408,0.6446,0.6507,0.6544,0.6599,0.6629,0.6664,0.6674,0.6699,0.6771,0.6816,0.6877,0.6898,0.6911,0.6984,0.6977,0.6972,0.6953,0.7002,0.7025,0.7035,0.6915,0.6914,0.6914,0.6914,0,0,0.6429,0.6498,0.6512,0.6538,0.6595,0.6637,0.6692,0.6748,0.6777,0.6823,0.687,0.6947,0.6942,0.6978,0.6994,0.703,0.7084,0.7021,0.7023,0.703,0.7166,0.7168,0.7179,0.7088,0.709,0.7091,0.716,0,0.6499,0.6594,0.6614,0.6697,0.6745,0.6752,0.68,0.6841,0.6865,0.691,0.6938,0.6992,0.6981,0.7002,0.7038,0.707,0.7112,0.7066,0.7132,0.7134,0.7117,0.7191,0.7195,0.7258,0.717,0.7172,0.7173,0,0.6595,0.6638,0.6725,0.6772,0.6793,0.6835,0.6887,0.693,0.6976,0.6991,0.7029,0.7041,0.7099,0.7076,0.7157,0.7124,0.7153,0.7172,0.7175,0.7182,0.7156,0.7199,0.7279,0.7288,0.7188,0.7187,0.7186,0,0.6637,0.6719,0.678,0.6803,0.686,0.6889,0.6915,0.6958,0.699,0.7037,0.7057,0.7111,0.714,0.7182,0.7208,0.7189,0.7285,0.7266,0.73,0.7299,0.732,0.7318,0.7405,0.734,0.734,0.7339,0.7339,0,0.6713,0.6766,0.6799,0.6837,0.6896,0.6918,0.6976,0.7002,0.704,0.7084,0.7095,0.7136,0.7168,0.7214,0.7235,0.7297,0.7311,0.7325,0.733,0.7324,0.7322,0.7343,0.7339,0.7342,0.7341,0.7341,0.734,0,0.6771,0.6796,0.6863,0.691,0.6923,0.6964,0.7005,0.7042,0.7065,0.7121,0.7135,0.7172,0.7226,0.7256,0.7326,0.7339,0.7408,0.7412,0.7392,0.7394,0.7426,0.7422,0.7528,0.7542,0.7468,0.7469,0.747,0,0.6817,0.6857,0.6907,0.6935,0.696,0.7007,0.7038,0.7061,0.7093,0.7146,0.7177,0.7231,0.7275,0.7362,0.7396,0.7448,0.7452,0.7486,0.7461,0.7452,0.7451,0.7448,0.7452,0.749,0.7491,0.7492,0.7492,0,0.6896,0.6905,0.6949,0.6996,0.7032,0.7071,0.7109,0.7133,0.7162,0.7198,0.7251,0.7285,0.7353,0.7407,0.7461,0.7489,0.7496,0.7499,0.751,0.7504,0.749,0.7496,0.7403,0.7497,0.7497,0.7496,0.7496,0.7496,0.6949,0.6983,0.7023,0.707,0.71,0.7136,0.7172,0.7198,0.7242,0.7297,0.7308,0.7365,0.7408,0.7481,0.751,0.7555,0.7549,0.7565,0.7568,0.7572,0.7572,0.7482,0.7565,0.7565,0.7565,0.7565,0.7565,0,0.7027,0.7052,0.7095,0.7146,0.7183,0.7183,0.7225,0.7256,0.7305,0.7343,0.7385,0.7445,0.7496,0.7533,0.7585,0.7614,0.7618,0.7627,0.7625,0.7631,0.7575,0.756,0.7623,0.7623,0.7623,0.7623,0.7623,0.7623,0.7072,0.713,0.7143,0.7216,0.7241,0.7294,0.7317,0.735,0.738,0.7446,0.7487,0.7509,0.7547,0.7601,0.7648,0.7658,0.7676,0.7684,0.7694,0.7642,0.7635,0.7629,0.7615,0.7688,0.7688,0.7746,0.7747,0.7747]},{"header":{"parameterUnit":"m.s-1","parameterCategory":1,"la1":30.2991,"la2":30.254,"lo1":-89.0895,"lo2":-89.0444,"dy":0.0017,"dx":0.0017,"nx":28,"ny":28,"refTime":"2024-09-30T21:00:00:Z","depth":0,"parameterNumber":3,"parameterNumberName":"V-component_of_WINDS"},"data":[0,0,0,0,0,0,0,0,0,0,0,0,0,0,0,0,0,0,0,0,0,0,0,0,0,0,0,0,0,0,0,0,0,0,0,0,0,0,0,0,0,0,0,0,0,0,0,0,0,0,0,0,0,0,0,0,0,0,1.488,1.4879,0,1.4795,1.4794,1.4793,1.4709,1.4708,1.4707,1.4706,1.4617,1.4616,1.4615,0,0,0,0,0,0,0,0,0,0,0,0,0,1.4968,1.4967,1.488,1.4879,1.4878,1.4795,1.4794,1.4793,1.4709,1.4708,1.4706,1.4705,1.4618,1.4616,1.4615,0,0,0,0,0,0,0,0,0,0,0,0,0,1.4911,1.4967,1.488,1.4826,1.4821,1.4795,1.4794,1.4792,1.4709,1.4708,1.4706,1.4704,1.4618,1.4616,1.4615,1.4635,0,0,1.4608,1.4608,0,0,0,0,0,0,0,0,1.4915,1.4908,1.4835,1.483,1.4824,1.4761,1.4792,1.474,1.471,1.4752,1.4706,1.4704,1.4666,1.466,1.4648,1.4631,1.4627,1.4608,1.4607,1.4606,1.4606,0,0,0,0,0,0,0,1.4919,1.4911,1.4846,1.4834,1.4827,1.4806,1.4796,1.4782,1.4719,1.4748,1.4741,1.4733,1.4663,1.465,1.4645,1.4626,1.4608,1.4607,1.4605,1.4605,1.4619,1.462,0,0,0,0,0,0,1.4931,1.4915,1.4849,1.4844,1.4866,1.4805,1.4794,1.4783,1.4719,1.4708,1.4734,1.4729,1.4654,1.4648,1.4642,1.466,1.4606,1.4604,1.4603,1.4617,1.4619,1.4621,0,0,0,0,0,0,1.4933,1.4926,1.4852,1.4878,1.4867,1.4806,1.4793,1.4782,1.4769,1.4709,1.4697,1.4733,1.4653,1.4645,1.4637,1.4656,1.4603,1.4602,1.4616,1.4618,1.462,1.4697,0,0,0,0,0,0,1.4936,1.4927,1.4935,1.4879,1.4866,1.485,1.4794,1.4781,1.4766,1.4758,1.4704,1.4694,1.4651,1.464,1.4635,1.4652,1.46,1.4614,1.4617,1.4619,1.4693,1.4702,1.471,0,0,0,0,0,1.494,1.4961,1.4936,1.4929,1.4874,1.4851,1.4844,1.4794,1.4768,1.4774,1.4735,1.4696,1.4655,1.464,1.4634,1.465,1.4612,1.4616,1.4619,1.4689,1.47,1.471,0,0,0,0,0,0,1.5021,1.4952,1.4924,1.4928,1.4896,1.4837,1.4844,1.4808,1.4783,1.4777,1.4716,1.4704,1.4703,1.4676,1.4661,1.4665,1.4628,1.463,1.4683,1.4693,1.4702,1.4707,1.4598,0,0,0,0,0,1.504,1.5027,1.4967,1.4976,1.4962,1.4906,1.4894,1.4858,1.4823,1.4809,1.4769,1.4736,1.4715,1.4703,1.4681,1.4689,1.4675,1.4697,1.4705,1.4713,1.4715,1.4714,1.4723,1.4633,1.4633,1.4633,0,0,1.5077,1.5038,1.5034,1.4991,1.4963,1.495,1.4895,1.4885,1.4874,1.4807,1.4797,1.4767,1.4725,1.4725,1.4723,1.4702,1.4737,1.4717,1.4724,1.4721,1.4719,1.4728,1.4735,1.4635,1.4635,1.4634,0,0,1.5139,1.5109,1.5112,1.5084,1.5041,1.5004,1.5005,1.4951,1.4928,1.4917,1.4866,1.4852,1.4819,1.479,1.4772,1.4822,1.4783,1.4816,1.486,1.4861,1.4868,1.4874,1.4889,1.4896,1.4819,1.4819,1.4819,0,1.5191,1.5171,1.5118,1.511,1.5092,1.5031,1.5032,1.5008,1.496,1.4948,1.4926,1.4881,1.4849,1.484,1.4852,1.484,1.4837,1.4821,1.4871,1.4877,1.4881,1.4895,1.4902,1.4823,1.4823,1.4823,1.4822,0,1.5235,1.5222,1.5229,1.5184,1.5167,1.5164,1.511,1.5099,1.5065,1.5029,1.5018,1.4977,1.4944,1.494,1.4907,1.4926,1.4914,1.4883,1.4843,1.4895,1.4907,1.4912,1.4829,1.4828,1.4827,1.4826,0,0,1.5345,1.5271,1.5274,1.5252,1.52,1.5187,1.5181,1.5149,1.514,1.5109,1.5101,1.5073,1.5043,1.5022,1.4985,1.4986,1.5025,1.4953,1.4951,1.4966,1.504,1.5063,1.507,1.4999,1.5,1.5001,1.5043,0,1.5396,1.5381,1.5333,1.5332,1.5318,1.5259,1.5253,1.522,1.5187,1.5169,1.5132,1.5112,1.5076,1.5062,1.506,1.5021,1.5038,1.5017,1.4989,1.4989,1.5,1.5077,1.5101,1.5142,1.5047,1.5048,1.5049,0,1.5454,1.5426,1.5424,1.537,1.5362,1.5358,1.5324,1.5308,1.5269,1.5244,1.522,1.5179,1.5167,1.5132,1.5114,1.5101,1.5086,1.5065,1.5065,1.5059,1.5021,1.5071,1.5154,1.516,1.5056,1.5056,1.5055,0,1.5531,1.5494,1.5486,1.547,1.5408,1.5406,1.538,1.5339,1.5322,1.5292,1.5281,1.525,1.5233,1.521,1.5161,1.514,1.5148,1.5109,1.5125,1.5127,1.5128,1.5128,1.5209,1.5123,1.5123,1.5123,1.5123,0,1.5592,1.5592,1.552,1.5516,1.5514,1.5458,1.5458,1.5426,1.539,1.5377,1.5325,1.5314,1.5251,1.5233,1.5194,1.5184,1.5177,1.5156,1.5145,1.5159,1.5162,1.5148,1.5143,1.5124,1.5124,1.5124,1.5123,0,1.5677,1.563,1.5618,1.556,1.5546,1.5546,1.5496,1.5489,1.5453,1.5437,1.5431,1.5373,1.5348,1.5298,1.5259,1.5233,1.5231,1.5214,1.5244,1.5238,1.5256,1.5255,1.5329,1.5335,1.5248,1.5249,1.5249,0,1.5718,1.5717,1.5659,1.5647,1.5623,1.5605,1.5587,1.5533,1.5517,1.5471,1.5469,1.544,1.5414,1.5377,1.5331,1.5301,1.5281,1.5309,1.5276,1.529,1.5279,1.5279,1.5277,1.5316,1.5318,1.5319,1.5319,0,1.5795,1.5771,1.5748,1.5717,1.5698,1.5671,1.564,1.5633,1.5571,1.5556,1.553,1.551,1.547,1.5442,1.5404,1.5376,1.5337,1.533,1.5332,1.5346,1.5363,1.5351,1.5262,1.5329,1.5328,1.5327,1.5326,1.5326,1.5857,1.5853,1.5811,1.5787,1.5759,1.5731,1.5721,1.5684,1.5661,1.5625,1.5594,1.5571,1.5529,1.5475,1.545,1.543,1.541,1.5414,1.5414,1.5415,1.542,1.5368,1.5423,1.5423,1.5422,1.5422,1.5422,0,1.5929,1.59,1.5878,1.5838,1.5818,1.5784,1.5749,1.5734,1.5715,1.568,1.5655,1.5625,1.5597,1.5549,1.5516,1.5509,1.549,1.5502,1.5501,1.5495,1.544,1.5441,1.5518,1.5518,1.5518,1.5518,1.5518,1.5518,1.5964,1.5954,1.5925,1.59,1.587,1.5847,1.5829,1.5803,1.5775,1.5743,1.572,1.5689,1.5648,1.5612,1.5584,1.5571,1.556,1.5578,1.5558,1.5508,1.5499,1.549,1.549,1.5576,1.5576,1.5614,1.5614,1.5614]}]]